Weather History for KLGD - December, 2012

Change the Weather History Date:

Saturday, December 15, 2012

  Actual Average Record
Temperature  
Mean Temperature 30 °F -  
Max Temperature 37 °F 36 °F 51 °F (2002)
Min Temperature 24 °F 25 °F -1 °F (1967)
Degree Days  
Heating Degree Days 34    
Moisture  
Dew Point 22 °F    
Average Humidity 67    
Maximum Humidity 86    
Minimum Humidity 48    
Precipitation  
Precipitation 0.16 in - - ()
Sea Level Pressure  
Sea Level Pressure 29.76 in    
Wind  
Wind Speed 6 mph (South)    
Max Wind Speed 25 mph    
Max Gust Speed 32 mph    
Visibility 8 miles    
Events      
Averages and records for this station are not official NWS values.
T = Trace of Precipitation, MM = Missing Value Source: NWS Daily Summary

Daily Weather History Graph

Daily Weather History Graph

Search for Another Location

Airport or City:

Trip Planner

Search our weather history database for the weather conditions in past years. The results will help you decide how hot, cold, wet, or windy it might be!

Date:

Astronomy

Dec. 15, 2012 Rise Set
Actual Time 7:24 AM PST 4:10 PM PST
Civil Twilight 6:50 AM PST 4:44 PM PST
Nautical Twilight 6:13 AM PST 5:21 PM PST
Astronomical Twilight 5:37 AM PST 5:57 PM PST
Moon 9:15 AM PST (12/15) 7:26 PM PST (12/15)
Length of Visible Light 9h 53m
Length of Day
8h 45m
Waxing Crescent, 9% of the Moon is Illuminated
Dec 15
Waxing Crescent
Dec 19
First Quarter
Dec 28
Full
Jan 4
Last Quarter
Jan 11
New

Hourly Weather History & Observations

Time (PST) Temp. Windchill Dew Point Humidity Pressure Visibility Wind Dir Wind Speed Gust Speed Precip Events Conditions
12:15 AM 30.2 °F - 24.8 °F 80% 29.88 in 5.0 mi Calm Calm - N/A   Overcast
12:35 AM 30.2 °F - 24.8 °F 80% 29.88 in 5.0 mi Calm Calm - N/A   Overcast
12:55 AM 30.2 °F 25.4 °F 24.8 °F 80% 29.89 in 4.0 mi NNW 4.6 mph - N/A   Overcast
1:15 AM 30.2 °F - 24.8 °F 80% 29.89 in 4.0 mi Calm Calm - N/A   Overcast
1:35 AM 30.2 °F - 24.8 °F 80% 29.88 in 5.0 mi Calm Calm - N/A   Overcast
1:55 AM 30.2 °F - 24.8 °F 80% 29.89 in 4.0 mi Calm Calm - N/A   Overcast
2:15 AM 30.2 °F - 24.8 °F 80% 29.89 in 4.0 mi Calm Calm - N/A   Overcast
2:35 AM 30.2 °F - 24.8 °F 80% 29.88 in 6.0 mi Calm Calm - N/A   Overcast
2:55 AM 30.2 °F - 24.8 °F 80% 29.88 in 5.0 mi Calm Calm - N/A   Overcast
3:15 AM 30.2 °F - 23.0 °F 75% 29.86 in 5.0 mi Calm Calm - N/A   Overcast
3:35 AM 28.4 °F - 24.8 °F 86% 29.86 in 4.0 mi Calm Calm - N/A   Overcast
3:55 AM 28.4 °F 24.6 °F 24.8 °F 86% 29.85 in 3.0 mi WNW 3.5 mph - N/A   Overcast
4:15 AM 28.4 °F 23.3 °F 23.0 °F 80% 29.85 in 3.0 mi WNW 4.6 mph - N/A   Overcast
4:35 AM 28.4 °F 24.6 °F 24.8 °F 86% 29.84 in 3.0 mi NW 3.5 mph - N/A   Overcast
4:55 AM 28.4 °F - 24.8 °F 86% 29.84 in 4.0 mi Calm Calm - N/A   Overcast
5:15 AM 28.4 °F - 23.0 °F 80% 29.84 in 3.0 mi Calm Calm - N/A   Overcast
5:35 AM 26.6 °F 18.2 °F 21.2 °F 80% 29.82 in 1.8 mi ENE 8.1 mph - N/A   Mostly Cloudy
5:55 AM 26.6 °F - 21.2 °F 80% 29.82 in 3.0 mi Calm Calm - N/A   Mostly Cloudy
6:15 AM 24.8 °F - 19.4 °F 80% 29.82 in 2.5 mi Calm Calm - N/A   Mostly Cloudy
6:35 AM 24.8 °F - 19.4 °F 80% 29.81 in 0.2 mi Calm Calm - N/A   Overcast
6:55 AM 24.8 °F 17.9 °F 19.4 °F 80% 29.81 in 0.2 mi West 5.8 mph - N/A   Overcast
7:15 AM 26.6 °F 20.0 °F 21.2 °F 80% 29.81 in 10.0 mi WSW 5.8 mph - N/A   Scattered Clouds
7:35 AM 28.4 °F 18.5 °F 21.2 °F 74% 29.82 in 10.0 mi South 11.5 mph - N/A   Clear
7:55 AM 30.2 °F 20.2 °F 24.8 °F 80% 29.82 in 10.0 mi South 12.7 mph - N/A   Clear
8:15 AM 30.2 °F 21.9 °F 21.2 °F 69% 29.83 in 10.0 mi South 9.2 mph - N/A   Clear
8:35 AM 30.2 °F 21.3 °F 21.2 °F 69% 29.83 in 10.0 mi SSE 10.4 mph - N/A   Clear
8:55 AM 33.8 °F 24.8 °F 23.0 °F 65% 29.83 in 10.0 mi SSE 12.7 mph 20.7 mph N/A   Clear
9:15 AM 33.8 °F 25.3 °F 23.0 °F 65% 29.83 in 10.0 mi South 11.5 mph - 0.01 in   Clear
9:35 AM 33.8 °F 25.8 °F 21.2 °F 60% 29.83 in 10.0 mi South 10.4 mph - 0.03 in   Clear
9:55 AM 35.6 °F 30.7 °F 21.2 °F 56% 29.82 in 10.0 mi South 5.8 mph - 0.03 in   Clear
10:15 AM 35.6 °F 29.2 °F 21.2 °F 56% 29.81 in 10.0 mi South 8.1 mph - N/A   Clear
10:35 AM 35.6 °F 28.0 °F 21.2 °F 56% 29.81 in 10.0 mi SSW 10.4 mph 23.0 mph N/A   Clear
10:55 AM 35.6 °F 27.5 °F 21.2 °F 56% 29.80 in 10.0 mi South 11.5 mph 19.6 mph N/A   Clear
11:15 AM 35.6 °F 26.6 °F 19.4 °F 52% 29.79 in 10.0 mi South 13.8 mph 20.7 mph N/A   Clear
11:35 AM 35.6 °F 27.1 °F 21.2 °F 56% 29.78 in 10.0 mi South 12.7 mph - N/A   Clear
11:55 AM 35.6 °F 27.5 °F 21.2 °F 56% 29.77 in 10.0 mi South 11.5 mph 19.6 mph N/A   Clear
12:15 PM 35.6 °F 26.2 °F 19.4 °F 52% 29.76 in 10.0 mi SSE 15.0 mph 20.7 mph N/A   Clear
12:35 PM 37.4 °F 29.3 °F 19.4 °F 48% 29.76 in 10.0 mi South 12.7 mph 20.7 mph N/A   Clear
12:55 PM 37.4 °F 28.2 °F 19.4 °F 48% 29.76 in 10.0 mi South 16.1 mph 23.0 mph N/A   Clear
1:15 PM 37.4 °F 29.3 °F 19.4 °F 48% 29.75 in 10.0 mi South 12.7 mph 24.2 mph N/A   Clear
1:35 PM 37.4 °F 30.8 °F 19.4 °F 48% 29.74 in 10.0 mi South 9.2 mph - N/A   Scattered Clouds
1:55 PM 37.4 °F 28.5 °F 19.4 °F 48% 29.74 in 10.0 mi South 15.0 mph - N/A   Scattered Clouds
2:15 PM 37.4 °F 28.9 °F 19.4 °F 48% 29.73 in 10.0 mi South 13.8 mph - N/A   Overcast
2:35 PM 35.6 °F 28.0 °F 19.4 °F 52% 29.73 in 10.0 mi South 10.4 mph 17.3 mph N/A   Overcast
2:55 PM 35.6 °F 29.2 °F 19.4 °F 52% 29.73 in 10.0 mi South 8.1 mph - N/A   Overcast
3:15 PM 35.6 °F 25.2 °F 19.4 °F 52% 29.72 in 10.0 mi South 18.4 mph 24.2 mph N/A   Overcast
3:35 PM 35.6 °F 23.4 °F 19.4 °F 52% 29.70 in 10.0 mi SSE 25.3 mph 32.2 mph N/A   Overcast
3:55 PM 35.6 °F 24.8 °F 19.4 °F 52% 29.69 in 10.0 mi SSE 19.6 mph 26.5 mph N/A   Overcast
4:15 PM 35.6 °F 24.5 °F 19.4 °F 52% 29.68 in 10.0 mi SE 20.7 mph 27.6 mph N/A   Overcast
4:35 PM 35.6 °F 24.0 °F 19.4 °F 52% 29.68 in 10.0 mi SSE 23.0 mph 27.6 mph N/A   Overcast
4:55 PM 35.6 °F 25.5 °F 19.4 °F 52% 29.68 in 10.0 mi SSE 17.3 mph 27.6 mph N/A   Overcast
5:15 PM 35.6 °F 25.5 °F 21.2 °F 56% 29.67 in 10.0 mi SSE 17.3 mph 25.3 mph N/A   Overcast
5:35 PM 35.6 °F 24.2 °F 21.2 °F 56% 29.66 in 10.0 mi SSE 21.9 mph 27.6 mph N/A   Overcast
5:55 PM 33.8 °F 23.5 °F 21.2 °F 60% 29.66 in 10.0 mi South 16.1 mph 23.0 mph N/A   Overcast
6:15 PM 33.8 °F 23.5 °F 21.2 °F 60% 29.66 in 10.0 mi South 16.1 mph 28.8 mph N/A   Overcast
6:35 PM 33.8 °F 23.5 °F 21.2 °F 60% 29.66 in 10.0 mi South 16.1 mph 27.6 mph N/A   Overcast
6:55 PM 33.8 °F 25.8 °F 23.0 °F 65% 29.66 in 9.0 mi SSW 10.4 mph - N/A   Overcast
7:15 PM 32.0 °F 24.2 °F 23.0 °F 69% 29.66 in 2.5 mi SSW 9.2 mph - N/A   Overcast
7:35 PM 32.0 °F 24.8 °F 24.8 °F 75% 29.66 in 3.0 mi South 8.1 mph - N/A   Overcast
7:55 PM 33.8 °F 27.7 °F 24.8 °F 70% 29.66 in 4.0 mi SSE 6.9 mph - N/A   Overcast
8:15 PM 33.8 °F 27.7 °F 24.8 °F 70% 29.66 in 4.0 mi SSE 6.9 mph - N/A   Overcast
8:35 PM 33.8 °F 26.4 °F 24.8 °F 70% 29.64 in 10.0 mi SE 9.2 mph - N/A   Overcast
8:55 PM 33.8 °F 23.5 °F 24.8 °F 70% 29.65 in 10.0 mi South 16.1 mph - N/A   Overcast
9:15 PM 33.8 °F 27.0 °F 24.8 °F 70% 29.65 in 10.0 mi South 8.1 mph 18.4 mph N/A   Mostly Cloudy
9:35 PM 33.8 °F 24.3 °F 24.8 °F 70% 29.65 in 10.0 mi South 13.8 mph 20.7 mph N/A   Mostly Cloudy
9:55 PM 33.8 °F 24.8 °F 24.8 °F 70% 29.66 in 10.0 mi South 12.7 mph 16.1 mph N/A   Mostly Cloudy
10:15 PM 33.8 °F 22.5 °F 24.8 °F 70% 29.66 in 10.0 mi South 19.6 mph 25.3 mph N/A   Overcast
10:55 PM 33.8 °F 23.5 °F 24.8 °F 70% 29.67 in 10.0 mi South 16.1 mph 24.2 mph N/A   Overcast
11:15 PM 33.8 °F 23.9 °F 24.8 °F 70% 29.67 in 10.0 mi South 15.0 mph 19.6 mph 0.01 in   Overcast
11:35 PM 33.8 °F 25.8 °F 24.8 °F 70% 29.68 in 5.0 mi SSW 10.4 mph 19.6 mph 0.12 in   Mostly Cloudy
11:55 PM 33.8 °F 27.7 °F 24.8 °F 70% 29.69 in 6.0 mi SW 6.9 mph - 0.13 in   Overcast